Weather in Matveyevka

Russia / Kurgan Oblast     54°34′10″N   63°40′10″E
temp.,
°C
wind,
m/s
gust,
m/s
humid.,
%
clouds,
%
prec.,
mm/h
press.,
hPa
HPBL,
m
17 april, sat
sat1723:00+7ene495799 0.0 1025362
02:00+5ene495992 0.0 1026319
05:00+4ene376647 0.0 1027211
08:00+5ese356287 0.0 1026213
11:00+8ese235099 0.0 1026517
14:00+9sse1246100 0.0 1024725
17:00+9w2256100 0.0 1023238
20:00+7wnw226865 0.0 102217
18 april, sun
sun1823:00+6nw2374100 0.0 102162
02:00+6w117459 0.0 101910
05:00+4nw358259 0.0 101884
08:00+6nw48655 0.0 1017292
11:00+10nw79475 0.0 10171303
14:00+8n101061100 0.0 10191267
17:00+5nne894554 0.0 10221414
20:00+3ne710435 0.0 10251002
19 april, mon
mon1923:00−1ne611430 0.0 1029857
02:00−2ne69440 0.0 1031921
05:00−4ne59440 0.0 1033902
08:00−3ne68370 0.0 10351046
11:00−1ne67300 0.0 10351499
14:00+1ne56285 0.0 10341909
17:00+2nne562867 0.0 10342181
20:00−1nne583825 0.0 1035268
20 april, tue
tue2023:00−2ne36450 0.0 1036153
02:00−2nne11440 0.0 103611
05:00−3nw23445 0.0 103746
08:000nnw46370 0.0 1037493
11:00+4nnw45305 0.0 10361537
14:00+6nw452823 0.0 10341737
17:00+8nw57305 0.0 10331760
20:00+5wnw34445 0.0 103348
21 april, wed
wed2123:00+3wsw47460 0.0 1033111
02:00+1w410520 0.0 1033186
05:000wnw48615 0.0 1033132
08:00+4nw58530 0.0 1033270
11:00+9nw56390 0.0 1033965
14:00+12nw55330 0.0 10321353
17:00+13nnw44320 0.0 10321483
20:00+10n22450 0.0 103310